Time,TemperatureF,DewpointF,PressureIn,WindDirection,WindDirectionDegrees,WindSpeedMPH,WindSpeedGustMPH,Humidity,HourlyPrecipIn,Conditions,Clouds,dailyrainin,SoftwareType,DateUTC
2013-05-30 00:00:00,8.7,99.9,100.00,North,0,16.0,89.0,10,0.00,,---,0.00,VWS V14.01,2013-05-30 08:00:00,
2013-05-30 00:30:00,8.7,99.9,100.00,North,0,16.0,90.0,10,-0.01,,---,0.00,VWS V14.01,2013-05-30 08:30:00,
2013-05-30 01:00:00,8.7,99.9,100.00,North,0,16.0,90.0,10,-0.01,,---,0.00,VWS V14.01,2013-05-30 09:00:00,
2013-05-30 01:30:00,8.7,99.9,100.00,North,0,17.0,90.0,10,-0.01,,---,0.00,VWS V14.01,2013-05-30 09:30:00,
2013-05-30 02:00:00,8.7,99.9,100.00,North,0,18.0,90.0,10,-0.01,,---,0.00,VWS V14.01,2013-05-30 10:00:00,
2013-05-30 02:30:00,8.7,99.9,100.00,North,0,17.0,89.0,11,0.00,,---,0.00,VWS V14.01,2013-05-30 10:30:00,
2013-05-30 03:00:00,8.7,99.9,100.00,North,1,18.0,90.0,12,0.00,,---,0.00,VWS V14.01,2013-05-30 11:00:00,
2013-05-30 03:30:00,8.7,99.9,100.00,North,2,18.0,89.0,13,0.00,,---,0.00,VWS V14.01,2013-05-30 11:30:00,
2013-05-30 04:00:00,8.7,99.9,100.00,North,3,18.0,88.0,14,0.00,,---,0.00,VWS V14.01,2013-05-30 12:00:00,
2013-05-30 04:30:00,8.7,99.9,100.00,North,1,18.0,88.0,14,0.00,,---,0.00,VWS V14.01,2013-05-30 12:30:00,
2013-05-30 05:00:00,8.7,99.9,100.00,North,1,18.0,86.0,14,0.00,,---,0.00,VWS V14.01,2013-05-30 13:00:00,
2013-05-30 05:30:00,8.7,99.9,100.00,North,1,18.0,87.0,15,0.00,,---,0.00,VWS V14.01,2013-05-30 13:30:00,
2013-05-30 06:00:00,8.7,99.9,100.00,North,1,17.0,84.0,16,0.00,,---,0.00,VWS V14.01,2013-05-30 14:00:00,
2013-05-30 06:30:00,8.7,99.9,100.00,North,3,17.0,78.0,19,0.00,,---,0.00,VWS V14.01,2013-05-30 14:30:00,
2013-05-30 07:00:00,8.7,99.9,100.00,North,2,19.0,79.0,19,0.00,,---,0.00,VWS V14.01,2013-05-30 15:00:00,
2013-05-30 07:30:00,8.7,99.9,100.00,North,2,19.0,77.0,20,0.00,,---,0.00,VWS V14.01,2013-05-30 15:30:00,
2013-05-30 08:00:00,8.7,99.9,100.00,North,3,19.0,75.0,20,0.00,,---,0.00,VWS V14.01,2013-05-30 16:00:00,
2013-05-30 08:30:00,8.7,99.9,100.00,North,2,19.0,75.0,20,0.00,,---,0.00,VWS V14.01,2013-05-30 16:30:00,
2013-05-30 09:00:00,8.7,99.9,100.00,North,1,18.0,76.0,21,0.00,,---,0.00,VWS V14.01,2013-05-30 17:00:00,
2013-05-30 09:30:00,8.7,99.9,100.00,North,1,18.0,74.0,21,0.00,,---,0.00,VWS V14.01,2013-05-30 17:30:00,
2013-05-30 10:00:00,8.7,99.9,100.00,North,2,18.0,77.0,20,0.00,,---,0.00,VWS V14.01,2013-05-30 18:00:00,
2013-05-30 10:30:00,8.7,99.9,100.00,North,3,18.0,79.0,18,0.00,,---,0.00,VWS V14.01,2013-05-30 18:30:00,
2013-05-30 11:00:00,8.7,99.9,100.00,North,4,18.0,82.0,17,0.00,,---,0.00,VWS V14.01,2013-05-30 19:00:00,
2013-05-30 11:30:00,8.7,99.9,100.00,North,6,18.0,82.0,18,0.00,,---,0.00,VWS V14.01,2013-05-30 19:30:00,
2013-05-30 12:00:00,8.7,99.9,100.00,North,2,19.0,80.0,18,0.00,,---,0.00,VWS V14.01,2013-05-30 20:00:00,
2013-05-30 12:30:00,8.7,99.9,100.00,North,0,19.0,80.0,19,0.00,,---,0.00,VWS V14.01,2013-05-30 20:30:00,
2013-05-30 13:00:00,8.7,99.9,100.00,North,1,18.0,80.0,18,0.00,,---,0.00,VWS V14.01,2013-05-30 21:00:00,
2013-05-30 13:30:00,8.7,99.9,100.00,North,1,18.0,82.0,17,0.00,,---,0.00,VWS V14.01,2013-05-30 21:30:00,
2013-05-30 14:00:00,8.7,99.9,100.00,North,1,18.0,82.0,17,0.00,,---,0.00,VWS V14.01,2013-05-30 22:00:00,
2013-05-30 14:30:00,8.7,99.9,100.00,North,1,18.0,83.0,17,0.00,,---,0.00,VWS V14.01,2013-05-30 22:30:00,
2013-05-30 15:00:00,8.7,99.9,100.00,North,2,17.0,83.0,16,0.00,,---,0.00,VWS V14.01,2013-05-30 23:00:00,
2013-05-30 15:30:00,8.7,99.9,100.00,North,1,17.0,85.0,15,0.00,,---,0.00,VWS V14.01,2013-05-30 23:30:00,
2013-05-30 16:00:00,8.7,99.9,100.00,North,2,17.0,85.0,17,0.00,,---,0.00,VWS V14.01,2013-05-31 00:00:00,
2013-05-30 16:30:00,8.7,99.9,100.00,North,0,17.0,83.0,16,0.00,,---,0.00,VWS V14.01,2013-05-31 00:30:00,
2013-05-30 17:00:00,8.7,99.9,100.00,North,1,17.0,84.0,15,0.00,,---,0.00,VWS V14.01,2013-05-31 01:00:00,
2013-05-30 17:30:00,8.7,99.9,100.00,North,1,17.0,83.0,15,0.00,,---,0.00,VWS V14.01,2013-05-31 01:30:00,
2013-05-30 18:00:00,8.7,99.9,100.00,North,0,17.0,85.0,15,0.00,,---,0.00,VWS V14.01,2013-05-31 02:00:00,
2013-05-30 18:30:00,8.7,99.9,100.00,North,1,17.0,81.0,17,0.00,,---,0.00,VWS V14.01,2013-05-31 02:30:00,
2013-05-30 19:00:00,8.7,99.9,100.00,North,1,17.0,81.0,17,0.00,,---,0.00,VWS V14.01,2013-05-31 03:00:00,
2013-05-30 19:30:00,8.7,99.9,100.00,North,0,17.0,82.0,16,0.00,,---,0.00,VWS V14.01,2013-05-31 03:30:00,
2013-05-30 20:00:00,8.7,99.9,100.00,North,2,17.0,82.0,16,0.00,,---,0.00,VWS V14.01,2013-05-31 04:00:00,
2013-05-30 20:30:00,8.7,99.9,100.00,North,0,17.0,81.0,16,0.00,,---,0.00,VWS V14.01,2013-05-31 04:30:00,
2013-05-30 21:00:00,8.7,99.9,100.00,North,1,17.0,81.0,16,0.00,,---,0.00,VWS V14.01,2013-05-31 05:00:00,
2013-05-30 21:30:00,8.7,99.9,100.00,North,0,17.0,84.0,16,0.00,,---,0.00,VWS V14.01,2013-05-31 05:30:00,
2013-05-30 22:00:00,8.7,99.9,100.00,North,2,17.0,81.0,16,0.00,,---,0.00,VWS V14.01,2013-05-31 06:00:00,
2013-05-30 22:30:00,8.7,99.9,100.00,North,2,17.0,82.0,17,0.00,,---,0.00,VWS V14.01,2013-05-31 06:30:00,
2013-05-30 23:00:00,8.7,99.9,100.00,North,1,17.0,84.0,16,0.00,,---,0.00,VWS V14.01,2013-05-31 07:00:00,
2013-05-30 23:30:00,8.7,99.9,100.00,North,1,17.0,83.0,15,0.00,,---,0.00,VWS V14.01,2013-05-31 07:30:00,